[[{"header":{"parameterUnit":"m.s-1","parameterCategory":1,"la1":30.2991,"la2":30.254,"lo1":-89.0895,"lo2":-89.0444,"dy":0.0017,"dx":0.0017,"nx":28,"ny":28,"refTime":"2023-06-28T21:00:00:Z","depth":0,"parameterNumber":2,"parameterNumberName":"U-component_of_WINDS"},"data":[0,0,0,0,0,0,0,0,0,0,0,0,0,0,0,0,0,0,0,0,0,0,0,0,0,0,0,0,0,0,0,0,0,0,0,0,0,0,0,0,0,0,0,0,0,0,0,0,0,0,0,0,0,0,0,0,0,0,1.2344,1.2345,0,1.2392,1.2393,1.2393,1.233,1.2327,1.2325,1.2323,1.238,1.2384,1.2387,0,0,0,0,0,0,0,0,0,0,0,0,0,1.2204,1.2207,1.2344,1.2345,1.2345,1.2392,1.2393,1.2393,1.233,1.2327,1.2324,1.2322,1.2379,1.2383,1.2387,0,0,0,0,0,0,0,0,0,0,0,0,0,1.226,1.2208,1.2344,1.2319,1.2317,1.2392,1.2393,1.2394,1.2331,1.2327,1.2324,1.232,1.2377,1.2383,1.2388,1.2492,0,0,1.2405,1.2407,0,0,0,0,0,0,0,0,1.2257,1.2265,1.2322,1.2321,1.2319,1.2351,1.2364,1.2427,1.2332,1.2326,1.2323,1.2319,1.2374,1.2379,1.2396,1.2494,1.2497,1.2405,1.2409,1.2411,1.2413,0,0,0,0,0,0,0,1.2253,1.2263,1.2363,1.2323,1.2321,1.2308,1.2312,1.2376,1.2369,1.2326,1.2322,1.2328,1.2372,1.2391,1.2397,1.2498,1.2405,1.241,1.2414,1.2416,1.2682,1.2686,0,0,0,0,0,0,1.2251,1.226,1.2362,1.2365,1.2278,1.2313,1.2318,1.2345,1.2368,1.2368,1.2331,1.2325,1.2383,1.2391,1.2399,1.252,1.2411,1.2416,1.2419,1.2678,1.2683,1.2687,0,0,0,0,0,0,1.2248,1.2261,1.236,1.2311,1.2323,1.2319,1.235,1.2347,1.2366,1.2371,1.2371,1.2351,1.2381,1.2391,1.2468,1.2522,1.2419,1.2424,1.2674,1.268,1.2685,1.2765,0,0,0,0,0,0,1.2245,1.226,1.2298,1.2312,1.2325,1.2427,1.2353,1.2351,1.2375,1.2367,1.239,1.239,1.2379,1.246,1.2474,1.2527,1.2428,1.2669,1.2677,1.2683,1.2758,1.2773,1.2786,0,0,0,0,0,1.224,1.2321,1.23,1.2313,1.2372,1.243,1.2438,1.242,1.2379,1.2418,1.2421,1.239,1.2514,1.2469,1.2483,1.2539,1.2666,1.2675,1.2683,1.2752,1.277,1.2786,0,0,0,0,0,0,1.2316,1.2322,1.23,1.2387,1.2408,1.2419,1.2467,1.2441,1.2476,1.2468,1.2448,1.2453,1.2535,1.2545,1.2495,1.264,1.2583,1.2595,1.2631,1.2648,1.2662,1.2658,1.2433,0,0,0,0,0,1.2342,1.2386,1.239,1.2467,1.2479,1.2471,1.2496,1.2481,1.2503,1.2512,1.2521,1.2546,1.259,1.262,1.2661,1.2759,1.2763,1.2805,1.2819,1.283,1.2841,1.2893,1.2911,1.2715,1.2715,1.2715,0,0,1.2398,1.2407,1.2437,1.2483,1.2497,1.2545,1.2479,1.2533,1.2569,1.2521,1.2593,1.2601,1.2627,1.2715,1.2754,1.2726,1.2896,1.2841,1.285,1.2855,1.2903,1.2922,1.2938,1.2721,1.272,1.2719,0,0,1.2524,1.2536,1.26,1.2615,1.2637,1.2631,1.2647,1.2661,1.2664,1.2735,1.27,1.2743,1.282,1.284,1.286,1.2992,1.2964,1.3007,1.308,1.313,1.3146,1.3159,1.3206,1.3223,1.3017,1.3017,1.3017,0,1.2592,1.266,1.2637,1.2692,1.2714,1.267,1.2736,1.2753,1.2788,1.2805,1.2772,1.2866,1.2881,1.2972,1.3004,1.3022,1.304,1.3004,1.3145,1.3158,1.3171,1.3215,1.3232,1.3022,1.3022,1.3021,1.3021,0,1.2741,1.2789,1.2839,1.2871,1.2898,1.2959,1.2947,1.2978,1.296,1.2958,1.3032,1.3048,1.3091,1.3111,1.3096,1.32,1.3182,1.3148,1.309,1.3195,1.3236,1.3252,1.3029,1.3027,1.3026,1.3025,0,0,1.2917,1.2934,1.2952,1.2965,1.2986,1.3023,1.3083,1.3121,1.3148,1.3174,1.3223,1.3289,1.3256,1.3279,1.3266,1.331,1.3413,1.327,1.3271,1.3296,1.3528,1.3552,1.3572,1.3394,1.3398,1.34,1.3525,0,1.3042,1.314,1.3121,1.3219,1.3262,1.3221,1.3273,1.3292,1.3292,1.3331,1.3332,1.3378,1.3332,1.3345,1.3388,1.3391,1.3459,1.3382,1.3441,1.3443,1.3434,1.3594,1.3621,1.3738,1.3541,1.3544,1.3546,0,1.32,1.3229,1.3329,1.3341,1.3359,1.3405,1.3439,1.3476,1.3497,1.3494,1.3519,1.3497,1.3557,1.3498,1.3581,1.3529,1.3552,1.3558,1.3562,1.3566,1.35,1.3602,1.3775,1.3792,1.3571,1.3569,1.3567,0,1.3317,1.3381,1.3448,1.3461,1.3477,1.3511,1.3519,1.3536,1.3561,1.3591,1.3607,1.3645,1.3667,1.3697,1.3687,1.3645,1.3772,1.3712,1.3772,1.3772,1.38,1.3798,1.3978,1.3817,1.3816,1.3816,1.3816,0,1.3457,1.3521,1.3501,1.3543,1.3612,1.3591,1.3661,1.3665,1.3681,1.3724,1.3692,1.3733,1.3717,1.3758,1.3751,1.382,1.383,1.383,1.3827,1.3833,1.3832,1.3847,1.3838,1.3821,1.382,1.3819,1.3818,0,1.3599,1.3588,1.3659,1.3668,1.3671,1.3722,1.373,1.377,1.3767,1.3822,1.3834,1.383,1.3877,1.3869,1.3922,1.3916,1.4003,1.3991,1.3995,1.3991,1.405,1.4045,1.4246,1.427,1.4094,1.4096,1.4097,0,1.3689,1.3736,1.3748,1.3773,1.3783,1.3825,1.3849,1.383,1.3857,1.3883,1.392,1.3963,1.3996,1.4073,1.4076,1.4116,1.4104,1.4172,1.411,1.4113,1.4104,1.4101,1.4105,1.4184,1.4186,1.4188,1.4189,0,1.3849,1.3841,1.3875,1.3908,1.3936,1.3962,1.3984,1.4007,1.399,1.4022,1.4067,1.4093,1.4145,1.4188,1.4225,1.4236,1.421,1.4208,1.4224,1.4229,1.4229,1.4228,1.4027,1.4204,1.4202,1.4201,1.42,1.42,1.3967,1.4006,1.402,1.4059,1.4074,1.4095,1.4132,1.4133,1.417,1.4208,1.4196,1.4248,1.4268,1.4314,1.4329,1.437,1.4345,1.4368,1.4374,1.438,1.4386,1.4223,1.4377,1.4377,1.4376,1.4376,1.4376,0,1.4124,1.4131,1.4167,1.4198,1.4229,1.4199,1.4222,1.4251,1.4296,1.4315,1.4347,1.44,1.4441,1.4447,1.4487,1.4519,1.4508,1.453,1.4527,1.453,1.4407,1.4388,1.4538,1.4538,1.4538,1.4538,1.4538,1.4538,1.421,1.4274,1.4268,1.4339,1.4346,1.4394,1.441,1.443,1.4445,1.4503,1.4536,1.4539,1.4553,1.4593,1.4631,1.4631,1.4647,1.4673,1.467,1.4555,1.4538,1.4523,1.4506,1.4677,1.4678,1.4789,1.479,1.4791]},{"header":{"parameterUnit":"m.s-1","parameterCategory":1,"la1":30.2991,"la2":30.254,"lo1":-89.0895,"lo2":-89.0444,"dy":0.0017,"dx":0.0017,"nx":28,"ny":28,"refTime":"2023-06-28T21:00:00:Z","depth":0,"parameterNumber":3,"parameterNumberName":"V-component_of_WINDS"},"data":[0,0,0,0,0,0,0,0,0,0,0,0,0,0,0,0,0,0,0,0,0,0,0,0,0,0,0,0,0,0,0,0,0,0,0,0,0,0,0,0,0,0,0,0,0,0,0,0,0,0,0,0,0,0,0,0,0,0,2.8326,2.8326,0,2.8385,2.8385,2.8386,2.8336,2.8334,2.8332,2.833,2.8388,2.8392,2.8395,0,0,0,0,0,0,0,0,0,0,0,0,0,2.8165,2.8169,2.8326,2.8326,2.8327,2.8384,2.8385,2.8386,2.8336,2.8334,2.8331,2.8329,2.8387,2.8391,2.8396,0,0,0,0,0,0,0,0,0,0,0,0,0,2.8231,2.817,2.8326,2.8309,2.8308,2.8384,2.8385,2.8386,2.8337,2.8334,2.8331,2.8328,2.8386,2.8391,2.8396,2.8491,0,0,2.8412,2.8414,0,0,0,0,0,0,0,0,2.8227,2.8237,2.8311,2.8311,2.831,2.835,2.835,2.8421,2.8338,2.8326,2.833,2.8326,2.8378,2.8384,2.8401,2.8493,2.8496,2.8413,2.8416,2.8418,2.842,0,0,0,0,0,0,0,2.8223,2.8234,2.8349,2.8312,2.8311,2.8297,2.8303,2.8363,2.8369,2.8327,2.8323,2.8331,2.8377,2.8397,2.8402,2.8497,2.8412,2.8417,2.842,2.8422,2.8664,2.8667,0,0,0,0,0,0,2.822,2.823,2.8347,2.8351,2.826,2.8303,2.8309,2.834,2.8368,2.8369,2.8334,2.8329,2.8389,2.8396,2.8404,2.8513,2.8418,2.8423,2.8426,2.8661,2.8665,2.8668,0,0,0,0,0,0,2.8217,2.8231,2.8345,2.829,2.8303,2.8309,2.8344,2.8343,2.8362,2.8373,2.8373,2.8353,2.8387,2.8397,2.8469,2.8515,2.8425,2.843,2.8657,2.8662,2.8667,2.8735,0,0,0,0,0,0,2.8213,2.823,2.8268,2.8291,2.8306,2.841,2.8347,2.8346,2.8372,2.8366,2.8391,2.8393,2.8385,2.8461,2.8474,2.8521,2.8434,2.8653,2.8659,2.8665,2.8728,2.8741,2.8753,0,0,0,0,0,2.8207,2.8285,2.827,2.8284,2.8353,2.8413,2.8421,2.8412,2.8376,2.8412,2.8418,2.8392,2.8508,2.8469,2.8483,2.8532,2.865,2.8657,2.8664,2.8723,2.8739,2.8752,0,0,0,0,0,0,2.8268,2.8288,2.8271,2.836,2.8385,2.8404,2.845,2.843,2.8465,2.8458,2.8444,2.845,2.8525,2.8536,2.8492,2.8622,2.8573,2.8583,2.8612,2.8628,2.864,2.8635,2.8438,0,0,0,0,0,2.8292,2.8339,2.8354,2.843,2.8443,2.8445,2.847,2.846,2.8486,2.8496,2.8507,2.8532,2.8573,2.8601,2.8641,2.873,2.8733,2.877,2.8782,2.8792,2.8801,2.8845,2.886,2.8693,2.8692,2.8692,0,0,2.8341,2.8358,2.8389,2.8442,2.8461,2.8508,2.8454,2.8508,2.8542,2.8504,2.8571,2.8581,2.8607,2.8686,2.8722,2.8698,2.8848,2.8801,2.8809,2.8813,2.8854,2.887,2.8884,2.8698,2.8697,2.8696,0,0,2.8455,2.8474,2.8537,2.8556,2.8584,2.8583,2.8599,2.862,2.8625,2.8693,2.8664,2.8704,2.8777,2.8795,2.8815,2.8931,2.8907,2.8944,2.9007,2.905,2.9063,2.9075,2.9113,2.9128,2.8953,2.8953,2.8954,0,2.8512,2.8584,2.8573,2.8627,2.865,2.8617,2.8679,2.8698,2.8737,2.8753,2.8725,2.8813,2.8829,2.8911,2.8939,2.8957,2.8971,2.8941,2.9062,2.9074,2.9084,2.9121,2.9136,2.8958,2.8957,2.8957,2.8956,0,2.8651,2.8701,2.8749,2.8787,2.8815,2.8874,2.8869,2.8899,2.8886,2.8887,2.8954,2.8972,2.9012,2.9031,2.902,2.911,2.9093,2.9065,2.9014,2.9105,2.9139,2.9153,2.8964,2.8962,2.8961,2.896,0,0,2.8807,2.8835,2.8852,2.8867,2.8894,2.8931,2.8987,2.9026,2.905,2.9077,2.9122,2.9182,2.9154,2.9176,2.9166,2.9204,2.9291,2.917,2.917,2.9189,2.9388,2.9408,2.9425,2.9275,2.9278,2.928,2.9385,0,2.8919,2.9016,2.9005,2.9097,2.914,2.9108,2.9156,2.9176,2.9179,2.9215,2.9217,2.9259,2.9221,2.9233,2.9269,2.9273,2.933,2.9265,2.9314,2.9316,2.9307,2.9443,2.9466,2.9564,2.9398,2.9401,2.9402,0,2.9064,2.9095,2.9191,2.9207,2.9224,2.9268,2.93,2.9336,2.9357,2.9356,2.9379,2.9361,2.9414,2.9363,2.9434,2.939,2.9409,2.9414,2.9417,2.942,2.9364,2.9448,2.9595,2.9609,2.9424,2.9422,2.942,0,2.9164,2.923,2.9294,2.9308,2.933,2.936,2.937,2.9388,2.9411,2.9439,2.9453,2.9488,2.9507,2.9533,2.9524,2.9488,2.9595,2.9545,2.9594,2.9594,2.9617,2.9616,2.9768,2.9633,2.9633,2.9632,2.9632,0,2.929,2.9349,2.9339,2.9378,2.9442,2.9428,2.9492,2.9498,2.9513,2.9552,2.9526,2.9563,2.9549,2.9584,2.9578,2.9636,2.9645,2.9644,2.9641,2.9645,2.9645,2.9656,2.9649,2.9636,2.9635,2.9635,2.9634,0,2.9412,2.9408,2.9476,2.9489,2.9494,2.954,2.9551,2.9587,2.9586,2.9635,2.9646,2.9645,2.9684,2.9678,2.9722,2.9717,2.9789,2.9779,2.9782,2.9779,2.9827,2.9822,2.9991,3.0011,2.9865,2.9866,2.9867,0,2.9492,2.9536,2.9553,2.9577,2.9589,2.9628,2.965,2.9638,2.9662,2.9687,2.9719,2.9756,2.9785,2.985,2.9852,2.9885,2.9874,2.9931,2.9879,2.988,2.9872,2.9868,2.9871,2.9941,2.9942,2.9944,2.9945,0,2.9632,2.9627,2.9661,2.9693,2.972,2.9745,2.9767,2.9788,2.9776,2.9804,2.9844,2.9867,2.991,2.9947,2.9977,2.9985,2.9963,2.9961,2.9974,2.9978,2.9977,2.9975,2.9808,2.9957,2.9956,2.9955,2.9954,2.9954,2.9734,2.977,2.9787,2.9824,2.9839,2.9859,2.9893,2.9895,2.9928,2.9963,2.9953,2.9997,3.0014,3.0051,3.0063,3.0096,3.0075,3.0094,3.0099,3.0103,3.0108,2.9972,3.0102,3.0102,3.0101,3.0101,3.0101,0,2.9871,2.9879,2.9914,2.9944,2.9973,2.9949,2.9971,2.9996,3.0035,3.0053,3.0081,3.0125,3.0159,3.0163,3.0195,3.022,3.021,3.0229,3.0226,3.0228,3.0126,3.0111,3.0236,3.0236,3.0236,3.0236,3.0236,3.0236,2.9945,3.0004,3.0001,3.0065,3.0073,3.0116,3.013,3.0148,3.0161,3.0211,3.0239,3.0242,3.0253,3.0284,3.0314,3.0314,3.0326,3.0348,3.0344,3.0249,3.0235,3.0222,3.0208,3.0351,3.0351,3.0442,3.0443,3.0444]}]]